Terminal Aerodrome Forecast
Issued by NWS

Home | Current Version | Previous Version | Text Only | Print | Product List | Glossary On
Versions: 1 2 3 4 5 6 7 8 9 10 11 12 13 14
266
FTUS41 KCLE 310522
TAFFDY
TAF
KFDY 310522Z 3106/0106 09004KT P6SM SCT120
     FM310900 28003KT 2SM BR OVC007
     FM311500 28005KT P6SM BKN015
     FM311700 30007KT P6SM BKN040
     FM010000 VRB03KT P6SM BKN040
     FM010400 VRB02KT 4SM BR SKC=

USA.gov is the U.S. government's official web portal to all federal, state and local government web resources and services.